Showing default

KANOPUS-V-IK, 42825

Orbit data source: Space-Track

KANOPUS-V-IK, 42825 is a payload satellite owned by VNIIEM (CIS) in SSO that was launched on Fri, 14 Jul 2017 UTC via a SOYUZ-2-1A launch vehicle from the Tyuratam Missile And Space Complex (TTMTR). Payload-class satellites include a variety of spacecraft equipped with specific instruments for various scientific and technological missions. These include communications satellites like Starlink; space stations such as the ISS; scientific satellites like the Hubble; Earth observation satellites from companies like Planet Labs, Umbra, and HawkEye 360; GPS; miniature CubeSats for education and research; and military/defense satellites.

Loading next visibility...
Identifier
42825, 2017-042A
Orbit
SSO
Last TLE update
3 hours ago
Origin
Manufacturer
VNIIEM
Mission
Operational Civil Imaging
Bus & Motor
KANOPUS, Unknown motor
Mass
550 kg wet, 550 kg dry
Launch date (UTC)
2017-07-14 (8 years ago)
Launch vehicle
SOYUZ-2-1A
Launch site
Tyuratam Missile And Space Complex (TTMTR)
Object type
Payload
Rocket body
Debris
Shape & HBR
Box + 2 Pan, 3.0 m
Radar Cross Section
1.665 m², Large (>1 m²)

Expand to show TLE details & history

TLE from 3 hours ago
0 KANOPUS-V-IK
1 42825U 17042A   25199.86977031  .00002318  00000-0  10185-3 0  9994
2 42825  97.3751 106.7104 0001693  95.2322 264.9108 15.22899232444630
Epoch: 2025-07-18T20:52Z
TLE epoch observation values (Epoch: 2025-07-18T20:52:28.154Z)
Latitude
-0.00004°
Longitude
-143.32194°
Altitude
500.3 km
Speed
7.614 km/s
True Right ascension
07h 06m 50s
True Declination
0° 00' 00"
Sunlit
Object was in daylight at epoch
Visualization orbit readout
Latitude
-60.75746°
Longitude
-129.91135°
Altitude
521.604 km
Speed
7.601 km/s
Apparent Right ascension
03h 16m 06s
Apparent Declination
-64° 28' 42"
Sunlit
Object is in daylight
Visualization observer readout
Local Sidereal Time
12:33:11
Azimuth
210.219° SW
Elevation
-56.045°
Doppler factor
1
Orbital elements
Apogee altitude
495.225 km
Perigee altitude
492.898 km
Semi-major axis
6,872.199 km
Eccentricity
0.00017
Inclination
97.3751°
RAAN
106.7104°
Arg. of periapsis
95.2322°
True anomaly
264.89148°
Mean anomaly
264.9108°
Eccentric anomaly
264.90114°
Mean motion
3.80978 °/min
Orbital period
94.49 mins
BSTAR
0.00010185
Loading maneuver chart data...
Loading SW <> Apogee altitude chart data...
|